Location: Akho
(42.3047°N, 44.1844°E)
Time: 09:11:50
(UTC+00:00)

Cosmos 1408 - Pass Details

Date: 07 June 2020
Orbit: 469 x 495 km, 82.6° (Epoch: 05 July)

Event Time Altitude Azimuth Distance (km) Brightness Sun altitude
Exits shadow 00:15:12 17° 231° (SW) 1,315 4.1 -11.2°
Maximum altitude 00:17:25 30° 283° (WNW) 899 3.6 -10.9°
Drops below altitude 10° 00:20:43 10° 347° (NNW) 1,686 5.7 -10.4°
Sets 00:23:00 0° 358° (N) 2,567 6.9 -10.1°
